owner,sensor,date,latitude,longitude,vertical_datum,direction_of_sea_water_velocity,sea_water_speed,upward_sea_water_velocity,qcFlag 
ADCP,ioos:station:wmo:42387:1,2014-03-01T00:04:00Z,28.2670,-88.3990,79.7,145.0,46.2,2.2,'1111122,1111122,1111122' 
ADCP,ioos:station:wmo:42387:1,2014-03-01T01:04:00Z,28.2670,-88.3990,79.6,132.0,43.5,0.1,'1111122,1111122,1111122' 
ADCP,ioos:station:wmo:42387:1,2014-03-01T02:04:00Z,28.2670,-88.3990,79.7,130.0,40.6,-4.9,'1111122,1111122,1111122' 
ADCP,ioos:station:wmo:42387:1,2014-03-01T03:04:00Z,28.2670,-88.3990,79.6,138.0,45.6,0.1,'1111122,1111122,1111122' 
ADCP,ioos:station:wmo:42387:1,2014-03-01T03:44:00Z,28.2670,-88.3990,79.7,140.0,45.4,1.3,'1111122,1111122,1111122' 
ADCP,ioos:station:wmo:42387:1,2014-03-01T04:04:00Z,28.2670,-88.3990,79.7,140.0,44.3,2.2,'1111122,1111122,1111122' 
ADCP,ioos:station:wmo:42387:1,2014-03-01T05:04:00Z,28.2670,-88.3990,79.7,143.0,43.1,0.4,'1111122,1111122,1111122' 
ADCP,ioos:station:wmo:42387:1,2014-03-01T05:24:00Z,28.2670,-88.3990,79.7,147.0,44.0,1.2,'1111122,1111122,1111122' 
ADCP,ioos:station:wmo:42387:1,2014-03-01T05:44:00Z,28.2670,-88.3990,79.7,151.0,41.3,-0.1,'1111122,1111122,1111122' 
ADCP,ioos:station:wmo:42387:1,2014-03-01T07:04:00Z,28.2670,-88.3990,79.7,148.0,46.8,2.7,'1111122,1111122,1111122' 
ADCP,ioos:station:wmo:42387:1,2014-03-01T08:04:00Z,28.2670,-88.3990,79.7,150.0,43.7,-1.7,'1111122,1111122,1111122' 
ADCP,ioos:station:wmo:42387:1,2014-03-01T09:04:00Z,28.2670,-88.3990,79.7,152.0,48.0,0.1,'1111122,1111122,1111122' 
ADCP,ioos:station:wmo:42387:1,2014-03-01T09:24:00Z,28.2670,-88.3990,79.7,152.0,47.9,1.4,'1111122,1111122,1111122' 
ADCP,ioos:station:wmo:42387:1,2014-03-01T10:04:00Z,28.2670,-88.3990,79.7,153.0,39.7,1.2,'1111122,1111122,1111122' 
ADCP,ioos:station:wmo:42387:1,2014-03-01T10:24:00Z,28.2670,-88.3990,79.7,151.0,36.7,1.3,'1111122,1111122,1111122' 
ADCP,ioos:station:wmo:42387:1,2014-03-01T11:04:00Z,28.2670,-88.3990,79.7,154.0,37.9,3.7,'1111122,1111122,1111122' 
ADCP,ioos:station:wmo:42387:1,2014-03-01T11:24:00Z,28.2670,-88.3990,79.7,150.0,35.8,3.3,'1111122,1111122,1111122' 
ADCP,ioos:station:wmo:42387:1,2014-03-01T11:44:00Z,28.2670,-88.3990,79.7,148.0,37.2,3.5,'1111122,1111122,1111122' 
ADCP,ioos:station:wmo:42387:1,2014-03-01T12:04:00Z,28.2670,-88.3990,79.7,150.0,40.9,4.6,'1111122,1111122,1111122' 
ADCP,ioos:station:wmo:42387:1,2014-03-01T13:04:00Z,28.2670,-88.3990,79.7,144.0,44.5,-0.2,'1111122,1111122,1111122' 
ADCP,ioos:station:wmo:42387:1,2014-03-01T13:24:00Z,28.2670,-88.3990,79.6,143.0,44.7,0.0,'1111122,1111122,1114422' 
ADCP,ioos:station:wmo:42387:1,2014-03-01T14:04:00Z,28.2670,-88.3990,79.7,139.0,43.3,-1.2,'1111122,1111122,1111122' 
ADCP,ioos:station:wmo:42387:1,2014-03-01T14:24:00Z,28.2670,-88.3990,79.7,143.0,42.1,-0.7,'1111122,1111122,1111122' 
ADCP,ioos:station:wmo:42387:1,2014-03-01T15:04:00Z,28.2670,-88.3990,79.7,141.0,42.0,-0.4,'1111122,1111122,1111122' 
ADCP,ioos:station:wmo:42387:1,2014-03-01T15:44:00Z,28.2670,-88.3990,79.6,144.0,41.1,0.4,'1111122,1111122,1111122' 
ADCP,ioos:station:wmo:42387:1,2014-03-01T16:04:00Z,28.2670,-88.3990,79.7,144.0,41.8,0.5,'1111122,1111122,1111122' 
ADCP,ioos:station:wmo:42387:1,2014-03-01T17:24:00Z,28.2670,-88.3990,79.6,142.0,48.6,1.2,'1111122,1111122,1111122' 
ADCP,ioos:station:wmo:42387:1,2014-03-01T18:04:00Z,28.2670,-88.3990,79.6,139.0,48.5,1.5,'1111122,1111122,1111122' 
ADCP,ioos:station:wmo:42387:1,2014-03-01T18:24:00Z,28.2670,-88.3990,79.7,137.0,43.7,0.1,'1111122,1111122,1111122' 
ADCP,ioos:station:wmo:42387:1,2014-03-01T19:04:00Z,28.2670,-88.3990,79.6,135.0,41.9,-0.6,'1111122,1111122,1111122' 
ADCP,ioos:station:wmo:42387:1,2014-03-01T20:04:00Z,28.2670,-88.3990,79.7,138.0,44.5,1.0,'1111122,1111122,1111122' 
ADCP,ioos:station:wmo:42387:1,2014-03-01T21:04:00Z,28.2670,-88.3990,79.6,133.0,40.9,-0.4,'1111122,1111122,1111122' 
ADCP,ioos:station:wmo:42387:1,2014-03-01T21:44:00Z,28.2670,-88.3990,79.6,127.0,36.8,-1.7,'1111122,1111122,1111122' 
ADCP,ioos:station:wmo:42387:1,2014-03-01T22:04:00Z,28.2670,-88.3990,79.6,127.0,36.8,-1.3,'1111122,1111122,1111122' 
ADCP,ioos:station:wmo:42387:1,2014-03-01T22:44:00Z,28.2670,-88.3990,79.6,130.0,35.7,-3.1,'1111122,1111122,1111122' 
ADCP,ioos:station:wmo:42387:1,2014-03-01T23:24:00Z,28.2670,-88.3990,79.6,126.0,34.6,-5.0,'1111122,1111122,1111122' 
ADCP,ioos:station:wmo:42387:1,2014-03-02T00:04:00Z,28.2670,-88.3990,79.6,126.0,34.5,-2.6,'1111122,1111122,1111122' 
ADCP,ioos:station:wmo:42387:1,2014-03-02T00:44:00Z,28.2670,-88.3990,79.6,125.0,31.9,-1.5,'1111122,1111122,1111122' 
ADCP,ioos:station:wmo:42387:1,2014-03-02T01:04:00Z,28.2670,-88.3990,79.6,123.0,32.8,-0.1,'1111122,1111122,1111122' 
ADCP,ioos:station:wmo:42387:1,2014-03-02T01:44:00Z,28.2670,-88.3990,79.6,126.0,32.2,-0.1,'1111122,1111122,1111122' 
ADCP,ioos:station:wmo:42387:1,2014-03-02T02:04:00Z,28.2670,-88.3990,79.6,128.0,32.3,-0.4,'1111122,1111122,1111122' 
ADCP,ioos:station:wmo:42387:1,2014-03-02T03:04:00Z,28.2670,-88.3990,79.6,141.0,29.4,-3.4,'1111122,1111122,1111122' 
ADCP,ioos:station:wmo:42387:1,2014-03-02T04:04:00Z,28.2670,-88.3990,79.6,141.0,29.3,-2.9,'1111122,1111122,1111122' 
ADCP,ioos:station:wmo:42387:1,2014-03-02T04:24:00Z,28.2670,-88.3990,79.6,133.0,29.4,-3.6,'1111122,1111122,1111122' 
ADCP,ioos:station:wmo:42387:1,2014-03-02T05:04:00Z,28.2670,-88.3990,79.6,138.0,31.0,-2.4,'1111122,1111122,1111122' 
ADCP,ioos:station:wmo:42387:1,2014-03-02T05:24:00Z,28.2670,-88.3990,79.6,142.0,30.9,-1.8,'1111122,1111122,1111122' 
ADCP,ioos:station:wmo:42387:1,2014-03-02T07:04:00Z,28.2670,-88.3990,79.6,153.0,32.5,-0.3,'1111122,1111122,1111122' 
ADCP,ioos:station:wmo:42387:1,2014-03-02T07:44:00Z,28.2670,-88.3990,79.6,153.0,34.0,2.0,'1111122,1111122,1111122' 
ADCP,ioos:station:wmo:42387:1,2014-03-02T08:24:00Z,28.2670,-88.3990,79.6,146.0,33.1,1.3,'1111122,1111122,1111122' 
ADCP,ioos:station:wmo:42387:1,2014-03-02T09:04:00Z,28.2670,-88.3990,79.6,143.0,31.6,-1.1,'1111122,1111122,1111122' 
ADCP,ioos:station:wmo:42387:1,2014-03-02T09:44:00Z,28.2670,-88.3990,79.6,142.0,32.2,-1.5,'1111122,1111122,1111122' 
ADCP,ioos:station:wmo:42387:1,2014-03-02T10:24:00Z,28.2670,-88.3990,79.6,139.0,32.6,-0.6,'1111122,1111122,1111122' 
ADCP,ioos:station:wmo:42387:1,2014-03-02T11:04:00Z,28.2670,-88.3990,79.6,138.0,33.6,0.0,'1111122,1111122,1114422' 
ADCP,ioos:station:wmo:42387:1,2014-03-02T12:04:00Z,28.2670,-88.3990,79.6,139.0,39.2,1.0,'1111122,1111122,1111122' 
ADCP,ioos:station:wmo:42387:1,2014-03-02T12:24:00Z,28.2670,-88.3990,79.7,136.0,40.5,-0.1,'1111122,1111122,1111122' 
ADCP,ioos:station:wmo:42387:1,2014-03-02T12:44:00Z,28.2670,-88.3990,79.7,135.0,40.9,-0.3,'1111122,1111122,1111122' 
ADCP,ioos:station:wmo:42387:1,2014-03-02T13:24:00Z,28.2670,-88.3990,79.6,132.0,38.5,-1.1,'1111122,1111122,1111122' 
ADCP,ioos:station:wmo:42387:1,2014-03-02T14:04:00Z,28.2670,-88.3990,79.7,131.0,39.9,-2.0,'1111122,1111122,1111122' 
ADCP,ioos:station:wmo:42387:1,2014-03-02T14:24:00Z,28.2670,-88.3990,79.6,127.0,40.3,-2.0,'1111122,1111122,1111122' 
ADCP,ioos:station:wmo:42387:1,2014-03-02T15:04:00Z,28.2670,-88.3990,79.6,122.0,37.5,-3.0,'1111122,1111122,1111122' 
ADCP,ioos:station:wmo:42387:1,2014-03-02T16:04:00Z,28.2670,-88.3990,79.6,124.0,38.4,-3.3,'1111122,1111122,1111122' 
ADCP,ioos:station:wmo:42387:1,2014-03-02T17:04:00Z,28.2670,-88.3990,79.6,126.0,38.4,-3.3,'1111122,1111122,1111122' 
ADCP,ioos:station:wmo:42387:1,2014-03-02T18:04:00Z,28.2670,-88.3990,79.6,123.0,37.6,-3.3,'1111122,1111122,1111122' 
ADCP,ioos:station:wmo:42387:1,2014-03-02T19:04:00Z,28.2670,-88.3990,79.6,131.0,41.8,-1.4,'1111122,1111122,1111122' 
ADCP,ioos:station:wmo:42387:1,2014-03-02T19:44:00Z,28.2670,-88.3990,79.7,134.0,41.9,0.1,'1111122,1111122,1111122' 
ADCP,ioos:station:wmo:42387:1,2014-03-02T20:04:00Z,28.2670,-88.3990,79.6,136.0,43.0,0.2,'1111122,1111122,1111122' 
ADCP,ioos:station:wmo:42387:1,2014-03-02T21:04:00Z,28.2670,-88.3990,79.6,136.0,42.3,0.0,'1111122,1111122,1114422' 
ADCP,ioos:station:wmo:42387:1,2014-03-02T22:04:00Z,28.2670,-88.3990,79.6,143.0,43.0,0.8,'1111122,1111122,1111122' 
ADCP,ioos:station:wmo:42387:1,2014-03-02T23:04:00Z,28.2670,-88.3990,79.6,148.0,43.9,-0.8,'1111122,1111122,1111122' 
ADCP,ioos:station:wmo:42387:1,2014-03-02T23:44:00Z,28.2670,-88.3990,79.6,146.0,36.6,-3.2,'1111122,1111122,1111122' 
ADCP,ioos:station:wmo:42387:1,2014-03-03T00:04:00Z,28.2670,-88.3990,79.6,149.0,33.3,-2.4,'1111122,1111122,1111122' 
ADCP,ioos:station:wmo:42387:1,2014-03-03T00:44:00Z,28.2670,-88.3990,79.6,147.0,25.3,-5.7,'1111122,1111122,1111122' 
ADCP,ioos:station:wmo:42387:1,2014-03-03T01:04:00Z,28.2670,-88.3990,79.6,147.0,28.2,-4.3,'1111122,1111122,1111122' 
ADCP,ioos:station:wmo:42387:1,2014-03-03T02:04:00Z,28.2670,-88.3990,79.6,149.0,31.8,-3.4,'1111122,1111122,1111122' 
ADCP,ioos:station:wmo:42387:1,2014-03-03T03:04:00Z,28.2670,-88.3990,79.6,148.0,33.1,-3.1,'1111122,1111122,1111122' 
ADCP,ioos:station:wmo:42387:1,2014-03-03T04:04:00Z,28.2670,-88.3990,79.6,149.0,34.6,-2.0,'1111122,1111122,1111122' 
ADCP,ioos:station:wmo:42387:1,2014-03-03T04:44:00Z,28.2670,-88.3990,79.6,147.0,31.8,-2.1,'1111122,1111122,1111122' 
ADCP,ioos:station:wmo:42387:1,2014-03-03T05:04:00Z,28.2670,-88.3990,79.6,148.0,31.0,-1.8,'1111122,1111122,1111122' 
ADCP,ioos:station:wmo:42387:1,2014-03-03T05:24:00Z,28.2670,-88.3990,79.6,151.0,29.7,-1.5,'1111122,1111122,1111122' 
ADCP,ioos:station:wmo:42387:1,2014-03-03T07:04:00Z,28.2670,-88.3990,79.6,151.0,27.2,-1.1,'1111122,1111122,1111122' 
ADCP,ioos:station:wmo:42387:1,2014-03-03T08:04:00Z,28.2670,-88.3990,79.6,152.0,27.4,-0.9,'1111122,1111122,1111122' 
ADCP,ioos:station:wmo:42387:1,2014-03-03T09:04:00Z,28.2670,-88.3990,79.6,148.0,25.6,-2.4,'1111122,1111122,1111122' 
ADCP,ioos:station:wmo:42387:1,2014-03-03T09:24:00Z,28.2670,-88.3990,79.6,145.0,26.2,-1.7,'1111122,1111122,1111122' 
ADCP,ioos:station:wmo:42387:1,2014-03-03T10:04:00Z,28.2670,-88.3990,79.6,146.0,24.8,-1.4,'1111122,1111122,1111122' 
ADCP,ioos:station:wmo:42387:1,2014-03-03T11:04:00Z,28.2670,-88.3990,79.6,143.0,23.4,-1.5,'1111122,1111122,1111122' 
ADCP,ioos:station:wmo:42387:1,2014-03-03T12:04:00Z,28.2670,-88.3990,79.6,138.0,28.3,-0.8,'1111122,1111122,1111122' 
ADCP,ioos:station:wmo:42387:1,2014-03-03T13:04:00Z,28.2670,-88.3990,79.6,135.0,29.8,-1.7,'1111122,1111122,1111122' 
ADCP,ioos:station:wmo:42387:1,2014-03-03T14:04:00Z,28.2670,-88.3990,79.6,134.0,30.7,-2.6,'1111122,1111122,1111122' 
ADCP,ioos:station:wmo:42387:1,2014-03-03T15:04:00Z,28.2670,-88.3990,79.6,135.0,28.8,-1.2,'1111122,1111122,1111122' 
ADCP,ioos:station:wmo:42387:1,2014-03-03T16:04:00Z,28.2670,-88.3990,79.6,133.0,30.6,-1.7,'1111122,1111122,1111122' 
ADCP,ioos:station:wmo:42387:1,2014-03-03T17:04:00Z,28.2670,-88.3990,79.6,126.0,28.1,-2.2,'1111122,1111122,1111122' 
ADCP,ioos:station:wmo:42387:1,2014-03-03T18:04:00Z,28.2670,-88.3990,79.6,131.0,29.5,-2.4,'1111122,1111122,1111122' 
ADCP,ioos:station:wmo:42387:1,2014-03-03T18:24:00Z,28.2670,-88.3990,79.6,135.0,29.9,-3.4,'1111122,1111122,1111122' 
ADCP,ioos:station:wmo:42387:1,2014-03-03T19:04:00Z,28.2670,-88.3990,79.6,139.0,30.3,-4.8,'1111122,1111122,1111122' 
ADCP,ioos:station:wmo:42387:1,2014-03-03T20:04:00Z,28.2670,-88.3990,79.6,140.0,31.7,-5.0,'1111122,1111122,1111122' 
ADCP,ioos:station:wmo:42387:1,2014-03-03T21:04:00Z,28.2670,-88.3990,79.6,131.0,34.2,-6.6,'1111122,1111122,1111122' 
ADCP,ioos:station:wmo:42387:1,2014-03-03T21:24:00Z,28.2670,-88.3990,79.6,133.0,35.4,-5.3,'1111122,1111122,1111122' 
ADCP,ioos:station:wmo:42387:1,2014-03-03T22:04:00Z,28.2670,-88.3990,79.6,139.0,35.6,-4.4,'1111122,1111122,1111122' 
ADCP,ioos:station:wmo:42387:1,2014-03-03T23:04:00Z,28.2670,-88.3990,79.6,144.0,36.4,-4.5,'1111122,1111122,1111122' 
ADCP,ioos:station:wmo:42387:1,2014-03-03T23:24:00Z,28.2670,-88.3990,79.6,144.0,35.7,-3.9,'1111122,1111122,1111122' 
ADCP,ioos:station:wmo:42387:1,2014-03-04T00:24:00Z,28.2670,-88.3990,79.6,139.0,27.8,-4.0,'1111122,1111122,1111122' 
ADCP,ioos:station:wmo:42387:1,2014-03-04T01:04:00Z,28.2670,-88.3990,79.6,148.0,28.1,-5.8,'1111122,1111122,1111122' 
ADCP,ioos:station:wmo:42387:1,2014-03-04T01:24:00Z,28.2670,-88.3990,79.6,149.0,27.8,-5.4,'1111122,1111122,1111122' 
ADCP,ioos:station:wmo:42387:1,2014-03-04T01:44:00Z,28.2670,-88.3990,79.6,149.0,30.1,-4.0,'1111122,1111122,1111122' 
ADCP,ioos:station:wmo:42387:1,2014-03-04T02:04:00Z,28.2670,-88.3990,79.6,147.0,26.5,-5.0,'1111122,1111122,1111122' 
ADCP,ioos:station:wmo:42387:1,2014-03-04T03:04:00Z,28.2670,-88.3990,79.6,150.0,27.3,-4.1,'1111122,1111122,1111122' 
ADCP,ioos:station:wmo:42387:1,2014-03-04T04:04:00Z,28.2670,-88.3990,79.6,149.0,25.2,-3.1,'1111122,1111122,1111122' 
ADCP,ioos:station:wmo:42387:1,2014-03-04T04:24:00Z,28.2670,-88.3990,79.6,150.0,23.5,-3.5,'1111122,1111122,1111122' 
ADCP,ioos:station:wmo:42387:1,2014-03-04T05:04:00Z,28.2670,-88.3990,79.6,148.0,21.5,-4.0,'1111122,1111122,1111122' 
ADCP,ioos:station:wmo:42387:1,2014-03-04T06:04:00Z,28.2670,-88.3990,79.6,148.0,20.8,-3.2,'1111122,1111122,1111122' 
ADCP,ioos:station:wmo:42387:1,2014-03-04T07:04:00Z,28.2670,-88.3990,79.6,146.0,19.1,-3.8,'1111122,1111122,1111122' 
ADCP,ioos:station:wmo:42387:1,2014-03-04T08:04:00Z,28.2670,-88.3990,79.6,130.0,17.6,-3.7,'1111122,1111122,1111122' 
ADCP,ioos:station:wmo:42387:1,2014-03-04T09:04:00Z,28.2670,-88.3990,79.6,135.0,16.1,-5.0,'1111122,1111122,1111122' 
ADCP,ioos:station:wmo:42387:1,2014-03-04T10:04:00Z,28.2670,-88.3990,79.6,125.0,17.4,-6.4,'1111122,1111122,1111122' 
ADCP,ioos:station:wmo:42387:1,2014-03-04T11:04:00Z,28.2670,-88.3990,79.6,142.0,16.9,-5.1,'1111122,1111122,1111122' 
ADCP,ioos:station:wmo:42387:1,2014-03-04T12:24:00Z,28.2670,-88.3990,79.6,144.0,34.0,-3.0,'1111122,1111122,1111122' 
ADCP,ioos:station:wmo:42387:1,2014-03-04T13:04:00Z,28.2670,-88.3990,79.6,141.0,32.4,-3.2,'1111122,1111122,1111122' 
ADCP,ioos:station:wmo:42387:1,2014-03-04T14:04:00Z,28.2670,-88.3990,79.6,141.0,31.3,-3.0,'1111122,1111122,1111122' 
ADCP,ioos:station:wmo:42387:1,2014-03-04T15:04:00Z,28.2670,-88.3990,79.6,147.0,31.0,-1.6,'1111122,1111122,1111122' 
ADCP,ioos:station:wmo:42387:1,2014-03-04T16:04:00Z,28.2670,-88.3990,79.6,146.0,29.3,-5.1,'1111122,1111122,1111122' 
ADCP,ioos:station:wmo:42387:1,2014-03-04T17:04:00Z,28.2670,-88.3990,79.6,147.0,30.8,-3.2,'1111122,1111122,1111122' 
ADCP,ioos:station:wmo:42387:1,2014-03-04T17:24:00Z,28.2670,-88.3990,79.6,144.0,31.7,-2.4,'1111122,1111122,1111122' 
ADCP,ioos:station:wmo:42387:1,2014-03-04T18:04:00Z,28.2670,-88.3990,79.6,140.0,30.6,-2.7,'1111122,1111122,1111122' 
ADCP,ioos:station:wmo:42387:1,2014-03-04T19:04:00Z,28.2670,-88.3990,79.6,136.0,31.8,-1.3,'1111122,1111122,1111122' 
ADCP,ioos:station:wmo:42387:1,2014-03-04T19:44:00Z,28.2670,-88.3990,79.6,141.0,34.2,-1.3,'1111122,1111122,1111122' 
ADCP,ioos:station:wmo:42387:1,2014-03-04T20:04:00Z,28.2670,-88.3990,79.6,147.0,35.7,-0.1,'1111122,1111122,1111122' 
ADCP,ioos:station:wmo:42387:1,2014-03-04T21:04:00Z,28.2670,-88.3990,79.6,149.0,37.2,-2.2,'1111122,1111122,1111122' 
ADCP,ioos:station:wmo:42387:1,2014-03-04T21:44:00Z,28.2670,-88.3990,79.6,151.0,41.2,-0.1,'1111122,1111122,1111122' 
ADCP,ioos:station:wmo:42387:1,2014-03-04T22:24:00Z,28.2670,-88.3990,79.6,148.0,38.2,-1.3,'1111122,1111122,1111122' 
ADCP,ioos:station:wmo:42387:1,2014-03-04T23:04:00Z,28.2670,-88.3990,79.6,146.0,38.5,0.2,'1111122,1111122,1111122' 
ADCP,ioos:station:wmo:42387:1,2014-03-05T00:04:00Z,28.2670,-88.3990,79.6,148.0,36.4,1.1,'1111122,1111122,1111122' 
ADCP,ioos:station:wmo:42387:1,2014-03-05T01:04:00Z,28.2670,-88.3990,79.6,141.0,26.6,-2.4,'1111122,1111122,1111122' 
ADCP,ioos:station:wmo:42387:1,2014-03-05T11:44:00Z,28.2670,-88.3990,79.6,138.0,34.8,0.9,'1111122,1111122,1111122' 
ADCP,ioos:station:wmo:42387:1,2014-03-05T23:04:00Z,28.2670,-88.3990,79.6,146.0,50.7,2.9,'1111122,1111122,1111122' 
ADCP,ioos:station:wmo:42387:1,2014-03-06T20:24:00Z,28.2670,-88.3990,79.6,122.0,21.3,2.1,'1111122,1111122,1111122' 
ADCP,ioos:station:wmo:42387:1,2014-03-06T21:04:00Z,28.2670,-88.3990,79.6,118.0,24.0,1.6,'1111122,1111122,1111122' 
ADCP,ioos:station:wmo:42387:1,2014-03-06T21:44:00Z,28.2670,-88.3990,79.6,124.0,25.5,2.0,'1111122,1111122,1111122' 
ADCP,ioos:station:wmo:42387:1,2014-03-06T22:04:00Z,28.2670,-88.3990,79.6,124.0,26.7,0.9,'1111122,1111122,1111122' 
ADCP,ioos:station:wmo:42387:1,2014-03-06T22:44:00Z,28.2670,-88.3990,79.6,126.0,26.6,0.1,'1111122,1111122,1111122' 
ADCP,ioos:station:wmo:42387:1,2014-03-06T23:24:00Z,28.2670,-88.3990,79.6,125.0,28.0,0.2,'1111122,1111122,1111122' 
ADCP,ioos:station:wmo:42387:1,2014-03-06T23:44:00Z,28.2670,-88.3990,79.6,132.0,29.5,2.2,'1111122,1111122,1111122' 
ADCP,ioos:station:wmo:42387:1,2014-03-07T00:04:00Z,28.2670,-88.3990,79.6,135.0,29.5,1.7,'1111122,1111122,1111122' 
ADCP,ioos:station:wmo:42387:1,2014-03-07T00:44:00Z,28.2670,-88.3990,79.6,131.0,28.2,-3.1,'1111122,1111122,1111122' 
ADCP,ioos:station:wmo:42387:1,2014-03-07T01:04:00Z,28.2670,-88.3990,79.6,135.0,26.4,-4.3,'1111122,1111122,1111122' 
ADCP,ioos:station:wmo:42387:1,2014-03-07T01:44:00Z,28.2670,-88.3990,79.6,138.0,22.0,-5.3,'1111122,1111122,1111122' 
ADCP,ioos:station:wmo:42387:1,2014-03-07T02:04:00Z,28.2670,-88.3990,79.6,143.0,22.7,-5.5,'1111122,1111122,1111122' 
ADCP,ioos:station:wmo:42387:1,2014-03-07T02:44:00Z,28.2670,-88.3990,79.6,151.0,24.8,-4.1,'1111122,1111122,1111122' 
ADCP,ioos:station:wmo:42387:1,2014-03-07T03:04:00Z,28.2670,-88.3990,79.6,150.0,25.4,-3.6,'1111122,1111122,1111122' 
ADCP,ioos:station:wmo:42387:1,2014-03-07T03:44:00Z,28.2670,-88.3990,79.6,150.0,24.4,-4.0,'1111122,1111122,1111122' 
ADCP,ioos:station:wmo:42387:1,2014-03-07T04:24:00Z,28.2670,-88.3990,79.6,158.0,25.6,-3.2,'1111122,1111122,1111122' 
ADCP,ioos:station:wmo:42387:1,2014-03-07T04:44:00Z,28.2670,-88.3990,79.6,151.0,23.4,-5.3,'1111122,1111122,1111122' 
ADCP,ioos:station:wmo:42387:1,2014-03-07T05:04:00Z,28.2670,-88.3990,79.6,153.0,23.9,-4.0,'1111122,1111122,1111122' 
ADCP,ioos:station:wmo:42387:1,2014-03-07T05:24:00Z,28.2670,-88.3990,79.6,152.0,21.3,-4.7,'1111122,1111122,1111122' 
ADCP,ioos:station:wmo:42387:1,2014-03-07T06:44:00Z,28.2670,-88.3990,79.6,149.0,21.2,-3.3,'1111122,1111122,1111122' 
ADCP,ioos:station:wmo:42387:1,2014-03-07T07:24:00Z,28.2670,-88.3990,79.6,149.0,21.8,-3.3,'1111122,1111122,1111122' 
ADCP,ioos:station:wmo:42387:1,2014-03-07T07:44:00Z,28.2670,-88.3990,79.6,149.0,21.1,-4.6,'1111122,1111122,1111122' 
ADCP,ioos:station:wmo:42387:1,2014-03-07T08:04:00Z,28.2670,-88.3990,79.6,145.0,18.9,-4.1,'1111122,1111122,1111122' 
ADCP,ioos:station:wmo:42387:1,2014-03-07T08:44:00Z,28.2670,-88.3990,79.6,141.0,20.1,-3.7,'1111122,1111122,1111122' 
ADCP,ioos:station:wmo:42387:1,2014-03-07T09:24:00Z,28.2670,-88.3990,79.6,145.0,22.4,-2.5,'1111122,1111122,1111122' 
ADCP,ioos:station:wmo:42387:1,2014-03-07T09:44:00Z,28.2670,-88.3990,79.6,144.0,22.7,-3.1,'1111122,1111122,1111122' 
ADCP,ioos:station:wmo:42387:1,2014-03-07T10:04:00Z,28.2670,-88.3990,79.6,138.0,21.0,-4.5,'1111122,1111122,1111122' 
ADCP,ioos:station:wmo:42387:1,2014-03-07T10:44:00Z,28.2670,-88.3990,79.6,145.0,22.6,-3.8,'1111122,1111122,1111122' 
ADCP,ioos:station:wmo:42387:1,2014-03-07T11:04:00Z,28.2670,-88.3990,79.6,142.0,19.9,-4.8,'1111122,1111122,1111122' 
ADCP,ioos:station:wmo:42387:1,2014-03-07T11:44:00Z,28.2670,-88.3990,79.6,141.0,23.3,-3.9,'1111122,1111122,1111122' 
ADCP,ioos:station:wmo:42387:1,2014-03-07T12:04:00Z,28.2670,-88.3990,79.6,143.0,28.9,-3.7,'1111122,1111122,1111122' 
ADCP,ioos:station:wmo:42387:1,2014-03-07T12:44:00Z,28.2670,-88.3990,79.6,144.0,30.0,-5.8,'1111122,1111122,1111122' 
ADCP,ioos:station:wmo:42387:1,2014-03-07T13:24:00Z,28.2670,-88.3990,79.6,140.0,26.7,-6.3,'1111122,1111122,1111122' 
ADCP,ioos:station:wmo:42387:1,2014-03-07T13:44:00Z,28.2670,-88.3990,79.6,138.0,31.3,-5.3,'1111122,1111122,1111122' 
ADCP,ioos:station:wmo:42387:1,2014-03-07T14:04:00Z,28.2670,-88.3990,79.6,135.0,30.4,-7.3,'1111122,1111122,1111122' 
ADCP,ioos:station:wmo:42387:1,2014-03-07T14:44:00Z,28.2670,-88.3990,79.6,132.0,31.7,-7.1,'1111122,1111122,1111122' 
ADCP,ioos:station:wmo:42387:1,2014-03-07T15:04:00Z,28.2670,-88.3990,79.6,138.0,34.6,-6.3,'1111122,1111122,1111122' 
ADCP,ioos:station:wmo:42387:1,2014-03-07T15:44:00Z,28.2670,-88.3990,79.6,143.0,37.7,-6.5,'1111122,1111122,1111122' 
ADCP,ioos:station:wmo:42387:1,2014-03-07T16:24:00Z,28.2670,-88.3990,79.6,147.0,41.5,-6.0,'1111122,1111122,1111122' 
ADCP,ioos:station:wmo:42387:1,2014-03-07T16:44:00Z,28.2670,-88.3990,79.6,145.0,42.1,-6.4,'1111122,1111122,1111122' 
ADCP,ioos:station:wmo:42387:1,2014-03-07T17:04:00Z,28.2670,-88.3990,79.6,145.0,40.8,-7.6,'1111122,1111122,1111122' 
ADCP,ioos:station:wmo:42387:1,2014-03-07T17:44:00Z,28.2670,-88.3990,79.6,145.0,38.7,-5.3,'1111122,1111122,1111122' 
ADCP,ioos:station:wmo:42387:1,2014-03-07T18:04:00Z,28.2670,-88.3990,79.6,143.0,39.0,-5.4,'1111122,1111122,1111122' 
ADCP,ioos:station:wmo:42387:1,2014-03-07T18:44:00Z,28.2670,-88.3990,79.6,140.0,40.6,-3.2,'1111122,1111122,1111122' 
ADCP,ioos:station:wmo:42387:1,2014-03-07T19:24:00Z,28.2670,-88.3990,79.6,143.0,41.3,-2.8,'1111122,1111122,1111122' 
ADCP,ioos:station:wmo:42387:1,2014-03-07T19:44:00Z,28.2670,-88.3990,79.6,144.0,41.3,-3.1,'1111122,1111122,1111122' 
ADCP,ioos:station:wmo:42387:1,2014-03-07T20:04:00Z,28.2670,-88.3990,79.6,146.0,41.5,-2.8,'1111122,1111122,1111122' 
ADCP,ioos:station:wmo:42387:1,2014-03-07T21:04:00Z,28.2670,-88.3990,79.6,147.0,38.6,-2.9,'1111122,1111122,1111122' 
ADCP,ioos:station:wmo:42387:1,2014-03-07T21:44:00Z,28.2670,-88.3990,79.7,148.0,42.3,-2.6,'1111122,1111122,1111122' 
ADCP,ioos:station:wmo:42387:1,2014-03-07T22:24:00Z,28.2670,-88.3990,79.7,144.0,40.6,-4.1,'1111122,1111122,1111122' 
ADCP,ioos:station:wmo:42387:1,2014-03-07T23:04:00Z,28.2670,-88.3990,79.7,148.0,41.7,-4.7,'1111122,1111122,1111122' 
ADCP,ioos:station:wmo:42387:1,2014-03-07T23:44:00Z,28.2670,-88.3990,79.7,152.0,44.4,-1.6,'1111122,1111122,1111122' 
ADCP,ioos:station:wmo:42387:1,2014-03-08T00:24:00Z,28.2670,-88.3990,79.6,148.0,39.4,-1.5,'1111122,1111122,1111122' 
ADCP,ioos:station:wmo:42387:1,2014-03-08T01:04:00Z,28.2670,-88.3990,79.6,152.0,44.8,-0.7,'1111122,1111122,1111122' 
ADCP,ioos:station:wmo:42387:1,2014-03-08T01:44:00Z,28.2670,-88.3990,79.6,153.0,44.9,-3.1,'1111122,1111122,1111122' 
ADCP,ioos:station:wmo:42387:1,2014-03-08T02:04:00Z,28.2670,-88.3990,79.6,153.0,44.0,-3.5,'1111122,1111122,1111122' 
ADCP,ioos:station:wmo:42387:1,2014-03-08T02:44:00Z,28.2670,-88.3990,79.6,153.0,41.1,-2.7,'1111122,1111122,1111122' 
ADCP,ioos:station:wmo:42387:1,2014-03-08T03:04:00Z,28.2670,-88.3990,79.6,154.0,39.2,-1.8,'1111122,1111122,1111122' 
ADCP,ioos:station:wmo:42387:1,2014-03-08T03:44:00Z,28.2670,-88.3990,79.6,152.0,31.9,-3.9,'1111122,1111122,1111122' 
ADCP,ioos:station:wmo:42387:1,2014-03-08T04:04:00Z,28.2670,-88.3990,79.6,148.0,30.6,-3.7,'1111122,1111122,1111122' 
ADCP,ioos:station:wmo:42387:1,2014-03-08T04:44:00Z,28.2670,-88.3990,79.6,145.0,31.8,-2.1,'1111122,1111122,1111122' 
ADCP,ioos:station:wmo:42387:1,2014-03-08T05:04:00Z,28.2670,-88.3990,79.6,144.0,33.7,-1.3,'1111122,1111122,1111122' 
ADCP,ioos:station:wmo:42387:1,2014-03-08T05:44:00Z,28.2670,-88.3990,79.7,143.0,32.6,-1.1,'1111122,1111122,1111122' 
ADCP,ioos:station:wmo:42387:1,2014-03-08T06:04:00Z,28.2670,-88.3990,79.6,145.0,30.8,-0.8,'1111122,1111122,1111122' 
ADCP,ioos:station:wmo:42387:1,2014-03-08T06:44:00Z,28.2670,-88.3990,79.6,144.0,32.7,-1.1,'1111122,1111122,1111122' 
ADCP,ioos:station:wmo:42387:1,2014-03-08T07:04:00Z,28.2670,-88.3990,79.6,146.0,31.2,-1.4,'1111122,1111122,1111122' 
ADCP,ioos:station:wmo:42387:1,2014-03-08T07:44:00Z,28.2670,-88.3990,79.6,140.0,34.0,0.5,'1111122,1111122,1111122' 
ADCP,ioos:station:wmo:42387:1,2014-03-08T08:04:00Z,28.2670,-88.3990,79.7,135.0,34.2,-0.7,'1111122,1111122,1111122' 
ADCP,ioos:station:wmo:42387:1,2014-03-08T08:44:00Z,28.2670,-88.3990,79.6,140.0,27.3,0.1,'1111122,1111122,1111122' 
ADCP,ioos:station:wmo:42387:1,2014-03-08T09:04:00Z,28.2670,-88.3990,79.6,141.0,26.8,0.0,'1111122,1111122,1114422' 
ADCP,ioos:station:wmo:42387:1,2014-03-08T09:44:00Z,28.2670,-88.3990,79.6,130.0,26.3,0.7,'1111122,1111122,1111122' 
ADCP,ioos:station:wmo:42387:1,2014-03-08T10:04:00Z,28.2670,-88.3990,79.6,122.0,22.2,-0.8,'1111122,1111122,1111122' 